Location: Terme di Valdieri
(44.2000°N, 7.2667°E)
Time: 15:15:02
(UTC+00:00)

Daily predictions for brighter satellites

Satellite Brightness Start Highest point End
(mag) Time Altitude Azimuth Time Altitude Azimuth Time Altitude Azimuth
Meteor 1-21 4.3 19:54:44 10° S 20:00:29 68° E 20:06:16 10° NNE
Aureole 3 4.2 19:56:51 10° SSE 20:01:17 52° E 20:06:47 10° NNE
Cosmos 1300 2.5 19:57:58 10° N 20:01:33 86° W 20:05:05 10° S
BREEZE-M DEB (TANK) 4.4 19:57:44 10° WNW 20:01:58 74° SSW 20:16:05 10° ESE
Cosmos 2237 Rocket 4.1 19:58:52 10° N 20:02:47 19° NE 20:06:38 10° E
SL-14 R/B 3.4 20:00:06 10° SSW 20:03:53 76° W 20:07:43 10° N
CZ-4C R/B 3.4 20:00:57 10° NNE 20:05:02 61° E 20:09:00 10° S
Cosmos 2333 Rocket 2.8 20:00:07 10° NNW 20:05:47 59° WSW 20:11:26 10° S
ATLAS 2AS CENTAUR R/B 3.2 20:04:52 10° NW 20:11:25 53° WSW 20:17:46 10° SSE
SJ 16-02 2.0 20:13:41 10° SSW 20:17:55 57° WNW 20:22:13 10° NNE
Cosmos 2322 3.9 20:13:50 10° NNW 20:19:28 61° ENE 20:24:36 12° SE
Cosmos 2315 Rocket 4.2 20:13:09 10° N 20:19:32 79° W 20:25:53 10° S
Cosmos 2322 Rocket 3.7 20:15:18 10° NW 20:20:17 32° WSW 20:25:16 10° SSW
COSMOS 2455 3.2 20:15:43 10° S 20:21:23 45° ESE 20:27:05 10° NE
Spot 2 Rocket 3.9 20:18:30 11° SE 20:23:09 49° ENE 20:28:04 10° N
Meteor 1-16 Rocket 4.4 20:17:56 10° N 20:23:54 75° E 20:29:44 10° SSE
Cosmos 2297 Rocket 3.3 20:21:39 10° SSE 20:26:00 24° ESE 20:30:27 10° NE
Cosmos 1455 2.7 20:22:55 10° N 20:26:13 37° ENE 20:28:44 15° SE
Okean 2 3.5 20:22:55 10° S 20:26:49 54° E 20:30:46 10° NNE
Okean 1-7 3.1 20:23:05 10° S 20:27:18 57° E 20:31:32 10° NNE
IRS-1A Rocket 4.3 20:23:00 10° SSE 20:28:30 88° E 20:34:06 10° NNW
SeaSat 1 3.5 20:24:21 11° ESE 20:28:36 35° NE 20:33:04 10° NNW
SPOT 3 Rocket 3.9 20:27:20 13° SE 20:31:44 50° ENE 20:36:44 10° N
Okean 3 3.6 20:28:10 10° SSW 20:32:18 74° W 20:36:31 10° N
Cosmos 2219 Rocket 2.6 20:28:39 10° NNW 20:34:16 62° WSW 20:39:44 11° S
Cosmos 158 Rocket 4.4 20:30:46 10° NNW 20:35:52 50° ENE 20:39:46 16° SE
Okean-O 3.8 20:31:52 10° SSW 20:35:59 40° W 20:40:09 10° NNW
CENTAUR R/B 3.7 20:35:25 14° SE 20:37:36 18° ESE 20:41:36 10° ENE
Cosmos 1862 Rocket 4.4 20:35:21 10° SSW 20:39:39 51° WNW 20:44:00 10° N
Cosmos 1703 Rocket 3.8 20:35:56 12° SSE 20:39:53 51° E 20:44:11 10° NNE
Okean O Rocket 4.0 20:39:37 10° SW 20:42:43 19° W 20:45:48 10° NW
USA 245 3.8 20:40:34 13° S 20:44:20 84° WSW 20:49:41 10° NNW
Cosmos 371 Rocket 3.8 20:42:40 13° S 20:46:35 40° ESE 20:51:06 10° NE
Delta 2 Rocket 4.4 20:45:37 10° SW 20:47:39 17° S 20:47:39 17° S
Cosmos 2208 Rocket 4.1 20:42:46 10° NNW 20:47:57 66° ENE 20:51:41 19° SSE
Ariane Rocket 3.0 20:44:24 15° SSE 20:48:35 77° ENE 20:53:41 10° N
Nadezhda 1 Rocket 4.5 20:42:43 10° N 20:48:41 46° ENE 20:53:01 18° SE
Cosmos 1242 Rocket 1.6 20:47:11 17° S 20:49:08 84° E 20:51:51 10° NNE
CZ-4C R/B 1.7 20:45:12 10° SSW 20:49:30 71° ESE 20:54:53 10° NE
Meteor 1-4 Rocket 4.0 20:47:27 10° SW 20:50:08 30° WNW 20:52:52 10° N
Terra 1.9 20:49:49 14° S 20:53:49 76° WSW 20:58:33 10° NNW
Helios 1B 4.5 20:49:36 10° NNE 20:53:56 70° ESE 20:57:46 13° S
MOS 1 Rocket 3.6 20:54:47 15° S 20:59:12 82° WSW 21:04:21 10° NNW
Cosmos 1486 Rocket 4.0 20:54:36 10° S 20:59:42 62° ESE 21:04:51 10° NNE
Cosmos 2360 Rocket 4.4 21:00:29 10° WNW 21:04:11 18° W 21:07:53 10° SW
Cosmos 1953 2.7 21:03:02 10° NNW 21:06:47 57° W 21:09:25 18° S
USA 234 3.4 21:01:26 10° ENE 21:07:46 50° SE 21:14:03 10° SSW
COSMOS 2428 2.9 21:03:16 10° NNW 21:08:56 70° WSW 21:12:54 20° S
SPOT 5 4.5 21:05:54 10° SSW 21:09:34 26° W 21:13:23 10° NW
Cosmos 304 Rocket 3.8 21:09:38 17° S 21:13:08 60° ESE 21:17:50 10° NNE
Cosmos 405 Rocket 4.4 21:13:41 10° NNE 21:16:33 20° ENE 21:17:44 18° E
BREEZE-M DEB (TANK) 4.4 21:14:12 10° WNW 21:16:46 39° N 21:22:37 10° ENE
Cosmos 1354 Rocket 4.4 21:19:10 24° SSE 21:21:58 46° ESE 21:27:00 10° NNE
BlueWalker 3 4.5 21:19:39 10° WNW 21:22:40 22° N 21:25:41 10° NE
ERS-1 Rocket 4.3 21:21:23 11° SSW 21:25:45 33° W 21:30:18 10° NNW
CZ-2C R/B 4.5 21:25:47 10° NNE 21:29:49 33° E 21:30:58 29° SE
SL-4 R/B 2.9 21:27:49 10° WNW 21:31:20 32° SW 21:32:20 28° SSW
Cosmos 2084 Rocket 4.0 21:29:14 10° SW 21:33:29 57° NW 21:37:36 10° NNE
Cosmos 1408 2.0 21:32:50 48° SSW 21:33:33 79° W 21:36:34 10° N
Cosmos 773 Rocket 3.9 21:31:15 10° NNW 21:36:27 88° ENE 21:39:00 31° SSE
Cosmos 2098 Rocket 4.4 21:30:37 10° N 21:36:46 46° ENE 21:39:36 27° SE
Cosmos 2242 Rocket 3.6 21:35:52 30° S 21:38:07 79° E 21:42:42 10° N
Cosmos 1782 Rocket 3.8 21:36:45 10° NNW 21:41:02 61° W 21:43:08 28° SSW
BREEZE-M DEB (TANK) 3.3 21:39:38 10° W 21:41:52 34° SSW 21:41:58 34° SSW
Cosmos 1709 Rocket 4.0 21:38:03 24° S 21:42:03 74° E 21:48:21 10° NNE
Cosmos 332 Rocket 4.0 21:41:28 33° SSE 21:43:16 51° ESE 21:48:00 10° NNE
Cosmos 1300 Rocket 3.7 21:40:23 10° NNW 21:44:41 68° W 21:46:34 32° S
SL-16 R/B 3.4 21:41:28 10° N 21:46:35 33° NE 21:50:00 18° ESE
Cosmos 2237 Rocket 2.1 21:41:53 10° NNW 21:47:35 85° WSW 21:50:16 33° SSE
NOSS 3-2 (A) 3.6 21:48:36 33° SE 21:49:43 36° ESE 21:55:01 10° NE
Cosmos 2227 Rocket 2.2 21:47:45 28° S 21:50:40 62° ESE 21:56:17 10° NNE
H-2A R/B 3.7 21:56:06 26° E 21:57:22 31° ENE 22:01:04 10° N
SL-12 R/B(2) 4.3 21:52:02 21° S 21:57:31 57° ESE 22:06:39 10° NE
Cosmos 1980 3.9 21:56:39 10° NNW 22:02:14 61° WSW 22:04:42 33° S
Meteor 2-5 Rocket 3.7 21:59:20 29° S 22:02:27 85° E 22:08:15 10° NNE
EXPRESS MD2 3.7 22:00:14 10° WNW 22:01:35 30° NW 22:01:35 30° NW
Cosmos 1378 Rocket 3.9 22:02:31 43° SE 22:03:25 50° E 22:07:41 10° NNE
GP-B 3.8 22:00:26 10° N 22:04:41 48° W 22:06:48 26° SW
Cosmos 1777 Rocket 4.2 22:01:00 19° SSW 22:04:48 69° WNW 22:10:05 10° NNE
ARIANE 5 R/B 2.6 22:03:45 45° SE 22:04:58 71° ENE 22:09:21 10° N
SeaSat 1 3.5 22:04:02 25° SSW 22:06:00 35° WSW 22:10:31 10° NW
Cosmos 1825 3.0 22:06:41 32° E 22:06:41 32° E 22:09:28 10° NNE
COSMOS 2455 4.4 22:01:55 10° WSW 22:07:25 36° NW 22:12:58 10° NNE
Cosmos 1674 Rocket 3.9 22:07:23 42° ESE 22:08:05 47° E 22:12:13 10° NNE
Cosmos 2297 Rocket 2.9 22:04:10 10° SW 22:09:39 52° WNW 22:15:11 10° NNE
Cosmos 1174 4.2 22:06:07 10° NW 22:10:28 47° WSW 22:11:05 43° SW
Cosmos 1703 3.7 22:10:39 37° SW 22:11:43 51° WNW 22:15:19 10° N
Cosmos 1538 Rocket 4.4 22:15:48 10° NNW 22:20:56 55° ENE 22:22:52 35° SE
NOSS 8 (A) 4.5 22:18:09 10° NW 22:21:11 63° WSW 22:21:11 63° WSW
Cosmos 2219 3.2 22:23:58 41° S 22:25:50 64° ESE 22:31:24 10° NNE
Cosmos 1461 3.1 22:26:32 46° E 22:26:32 46° E 22:29:51 10° NE
CENTAUR R/B 2.5 22:22:27 16° SW 22:27:02 79° NW 22:34:01 10° NE
Cosmos 2263 Rocket 2.5 22:27:07 41° SE 22:28:21 47° ESE 22:33:40 10° NE
Cosmos 2154 Rocket 4.5 22:27:17 34° SE 22:29:28 47° E 22:35:28 10° NNE
Cosmos 1818 4.2 22:24:47 10° NNW 22:30:07 49° NE 22:32:53 27° ESE
Cosmos 1892 2.3 22:31:14 85° ENE 22:31:14 85° ENE 22:34:43 10° N
Cosmos 2151 Rocket 3.5 22:28:34 10° N 22:32:58 85° W 22:33:47 58° S
Meteor 1-24 Rocket 4.3 22:32:42 24° SW 22:35:56 52° WNW 22:41:19 10° N
Okean 2 Rocket 3.0 22:32:54 10° N 22:37:25 84° W 22:38:18 58° S
CZ-4C R/B 4.4 22:34:39 10° W 22:38:34 24° NNW 22:43:17 10° NNE
ALOS 2 2.7 22:46:36 55° SE 22:47:22 67° ENE 22:51:45 10° N
Cosmos 1898 Rocket 3.7 22:48:08 47° SE 22:49:00 53° ESE 22:54:02 10° NNE
Cosmos 292 Rocket 3.7 22:49:43 57° S 22:50:36 75° ESE 22:55:26 10° NNE
USA 234 3.8 22:44:26 10° NE 22:50:50 58° NNW 22:57:12 10° WSW
Cosmos 405 Rocket 4.0 22:48:24 10° NNW 22:51:40 28° W 22:51:59 28° WSW
H-2A R/B 3.3 22:53:40 10° NE 22:57:02 26° E 22:57:02 26° E
USA 281 3.3 22:56:14 39° S 22:58:45 67° WSW 23:05:19 10° NNW
Cosmos 2074 Rocket 4.0 22:58:51 39° SSW 23:01:18 80° W 23:07:33 10° N
BlueWalker 3 4.3 22:58:44 10° NW 23:01:46 23° N 23:04:47 10° ENE
Aureole 1 Rocket 2.9 23:05:07 64° SW 23:05:43 79° WNW 23:10:43 10° NNE
Cosmos 2221 Rocket 4.4 23:07:38 35° WSW 23:08:46 42° WNW 23:12:59 10° N
USA 238 DEB 4.1 23:08:11 35° SE 23:09:10 37° ESE 23:15:07 10° NE
USA 238 4.1 23:08:14 35° SE 23:09:12 37° ESE 23:15:09 10° NE
Cosmos 1328 3.9 23:09:17 62° W 23:09:28 63° W 23:13:19 10° N
Okean 1 Rocket 3.3 23:09:18 10° NNW 23:13:35 53° W 23:14:06 50° WSW
Cosmos 1900 4.3 23:18:28 57° S 23:19:28 77° ESE 23:24:34 10° NE
Cosmos 1867 4.0 23:19:03 43° SE 23:19:37 45° ESE 23:24:49 10° NE
Meteor 1-21 Rocket 4.2 23:21:20 48° SSW 23:23:03 87° WNW 23:28:42 10° N
Cosmos 1025 Rocket 3.2 23:23:54 56° WSW 23:24:26 62° W 23:28:43 10° N
Elektron 3 4.3 23:18:57 10° NW 23:24:28 70° SW 23:24:28 70° SW
Cosmos 1680 Rocket 3.7 23:21:29 10° NNW 23:26:41 66° ENE 23:28:15 43° SE
Cosmos 372 Rocket 3.9 23:26:39 51° SSW 23:28:00 82° WNW 23:33:15 10° NNE
Cosmos 2237 Rocket 4.4 23:28:45 10° WNW 23:30:41 12° W 23:32:05 11° WSW
SL-16 R/B 2.8 23:25:27 10° NW 23:30:46 42° WSW 23:31:50 38° SW
Cosmos 2341 Rocket 4.3 23:28:46 38° SE 23:30:48 55° E 23:36:52 10° NNE
Cosmos 1975 Rocket 2.9 23:31:37 70° SSE 23:32:02 79° E 23:36:28 10° N
H-2A R/B 4.0 23:32:04 25° W 23:32:16 25° W 23:35:45 10° NW
Cosmos 2112 Rocket 4.2 23:27:53 10° NNW 23:33:02 63° ENE 23:34:40 41° SE
Cosmos 2227 Rocket 4.1 23:30:38 10° WSW 23:35:09 24° NW 23:39:42 10° N
Cosmos 1606 3.4 23:32:21 10° N 23:35:42 41° ENE 23:35:42 41° ENE
Cosmos 1943 3.3 23:30:45 10° NNW 23:36:22 72° ENE 23:38:26 40° SE
Cosmos 1603 4.5 23:30:57 10° NNW 23:36:31 47° ENE 23:39:42 24° ESE
Cosmos 2082 4.2 23:36:07 29° WSW 23:38:43 53° WNW 23:44:14 10° NNE
NOSS 3-2 (A) 4.4 23:35:54 13° WSW 23:40:23 40° NW 23:46:16 10° NNE
Cosmos 1825 4.4 23:40:07 13° W 23:40:39 14° WNW 23:42:31 10° NW
Nadezhda 3 Rocket 4.2 23:35:23 10° NNW 23:41:27 56° W 23:43:26 40° SW
Cosmos 1455 Rocket 3.1 23:37:21 10° NNW 23:41:47 64° W 23:42:10 61° SW
Meteor 2-1 Rocket 4.2 23:41:53 10° N 23:47:45 86° E 23:49:33 47° SSE
Cosmos 2366 rocket 4.2 23:45:43 39° SSE 23:47:52 61° E 23:53:59 10° NNE
Cosmos 858 Rocket 4.5 23:50:30 49° SW 23:51:53 76° WNW 23:57:07 10° NNE
NOSS 3-2 (C) 3.4 23:49:28 33° WSW 23:51:53 65° NW 23:58:03 10° NNE
Cosmos 2218 Rocket 4.1 23:51:32 40° SSE 23:53:41 64° E 23:59:45 10° NNE
Cosmos 2228 3.6 23:50:56 10° N 23:55:06 46° ENE 23:55:54 41° ESE
